Location: Complexul Astronomic Baia Mare
(47.6577°N, 23.5639°E)
Time: 05:53:10
(UTC+03:00)

ISS - Pass Details

Date: 12 March 2017
Orbit: 399 x 409 km, 51.6° (Epoch: 30 March)

Event Time Altitude Azimuth Distance (km) Brightness Sun altitude
Exits shadow 03:51:26 17° 67° (ENE) 1,139 -0.8 -28.9°
Drops below altitude 10° 03:52:17 10° 67° (ENE) 1,480 -0.1 -28.8°
Sets 03:54:23 0° 67° (ENE) 2,345 1.3 -28.5°
